| DS18B20 | SHTC3 | ||||||
|---|---|---|---|---|---|---|---|
| ID | Date d/m/Y & Time | data1 สูง | data2 ต่ำ | data3 นอก | temp pcb | hum pcb | Time |
| 1716 | 12/03/2026 07:49:46 | 26.5  | 26.6  | 26.4  | 26.4  | 71.6  | 07:49 |
| 1715 | 12/03/2026 07:45:05 | 26.5  | 26.5  | 26.1  | 26.4  | 71.7  | 07:45 |
| 1714 | 12/03/2026 07:40:23 | 26.4  | 26.5  | 26.1  | 26.5  | 71.7  | 07:40 |
| 1713 | 12/03/2026 07:35:41 | 26.4  | 26.6  | 25.9  | 26.3  | 71.6  | 07:35 |
| 1712 | 12/03/2026 07:31:00 | 26.4  | 26.5  | 25.8  | 26.4  | 71.7  | 07:31 |
| 1711 | 12/03/2026 07:26:19 | 26.4  | 26.5  | 25.6  | 26.2  | 71.7  | 07:26 |
| 1710 | 12/03/2026 07:21:38 | 26.4  | 26.5  | 25.4  | 26.3  | 71.8  | 07:21 |
| 1709 | 12/03/2026 07:16:56 | 26.4  | 26.6  | 25.3  | 26.5  | 71.9  | 07:16 |
| 1708 | 12/03/2026 07:12:15 | 26.4  | 26.6  | 25.2  | 26.4  | 71.8  | 07:12 |
| 1707 | 12/03/2026 07:07:33 | 26.5  | 26.6  | 25.2  | 26.4  | 71.9  | 07:07 |
| 1706 | 12/03/2026 07:02:53 | 26.5  | 26.6  | 25.2  | 26.3  | 72.1  | 07:02 |
| 1705 | 12/03/2026 06:58:11 | 26.5  | 26.6  | 25.2  | 26.5  | 72.0  | 06:58 |
| 1704 | 12/03/2026 06:53:30 | 26.6  | 26.6  | 25.2  | 26.6  | 72.0  | 06:53 |
| 1703 | 12/03/2026 06:48:49 | 26.6  | 26.7  | 25.2  | 26.5  | 72.0  | 06:48 |
| 1702 | 12/03/2026 06:44:07 | 26.6  | 26.7  | 25.0  | 26.5  | 72.0  | 06:44 |
| 1701 | 12/03/2026 06:39:25 | 26.6  | 26.8  | 25.0  | 26.6  | 71.8  | 06:39 |
| 1700 | 12/03/2026 06:34:44 | 26.6  | 26.7  | 25.0  | 26.4  | 71.8  | 06:34 |
| 1699 | 12/03/2026 06:30:02 | 26.6  | 26.8  | 25.2  | 26.5  | 71.7  | 06:30 |
| 1698 | 12/03/2026 06:25:21 | 26.6  | 26.8  | 25.2  | 26.6  | 71.9  | 06:25 |
| 1697 | 12/03/2026 06:20:39 | 26.7  | 26.8  | 25.2  | 26.5  | 71.8  | 06:20 |
| 1696 | 12/03/2026 06:15:57 | 26.7  | 26.8  | 25.2  | 26.7  | 71.8  | 06:15 |
| 1695 | 12/03/2026 06:11:15 | 26.7  | 26.8  | 25.2  | 26.6  | 71.8  | 06:11 |
| 1694 | 12/03/2026 06:06:33 | 26.8  | 26.8  | 25.4  | 26.6  | 71.8  | 06:06 |
| 1693 | 12/03/2026 06:01:51 | 26.8  | 26.9  | 25.4  | 26.8  | 71.8  | 06:01 |